This is the latest recevied weather packets stored in our database for station/object Krupka. If no packets are shown the sender has not sent any weather packets the latest 1 day(s).
| Time | Temp. | Humidity | Pressure | Rain* | Wind** | Luminosity | Snow |
|---|---|---|---|---|---|---|---|
| 1778013004 | 12.22° C | 86% | - | - | 4.02 m/s, 23° | - | - |
| 1778012704 | 12.22° C | 86% | - | - | 4.02 m/s, 33° | - | - |
| 1778012413 | 12.22° C | 85% | - | - | 4.02 m/s, 15° | - | - |
| 1778012103 | 12.22° C | 86% | - | - | 4.92 m/s, 26° | - | - |
| 1778011803 | 12.22° C | 85% | - | - | 4.02 m/s, 25° | - | - |
| 1778011504 | 12.22° C | 86% | - | - | 3.13 m/s, 21° | - | - |
| 1778011204 | 12.22° C | 86% | - | - | 4.92 m/s, 34° | - | - |
| 1778010902 | 12.22° C | 86% | - | - | 4.02 m/s, 14° | - | - |
| 1778010603 | 12.22° C | 87% | - | - | 5.81 m/s, 19° | - | - |
| 1778010304 | 12.22° C | 86% | - | - | 4.92 m/s, 26° | - | - |
| 1778010003 | 12.22° C | 86% | - | - | 4.02 m/s, 19° | - | - |
| 1778009704 | 12.22° C | 85% | - | - | 4.02 m/s, 359° | - | - |
| 1778009404 | 12.22° C | 85% | - | - | 4.92 m/s, 14° | - | - |
| 1778009103 | 12.22° C | 85% | - | - | 4.02 m/s, 4° | - | - |
| 1778008805 | 12.22° C | 85% | - | - | 7.15 m/s, 10° | - | - |
| 1778008504 | 12.22° C | 85% | - | - | 7.15 m/s, 12° | - | - |
| 1778008203 | 12.22° C | 84% | - | - | 7.15 m/s, 7° | - | - |
| 1778007903 | 12.22° C | 84% | - | - | 5.81 m/s, 12° | - | - |
| 1778007604 | 12.22° C | 84% | - | - | 8.05 m/s, 6° | - | - |
| 1778007304 | 12.22° C | 84% | - | - | 8.94 m/s, 10° | - | - |
| 1778007004 | 12.22° C | 84% | - | - | 8.94 m/s, 8° | - | - |
| 1778006704 | 12.22° C | 84% | - | - | 5.81 m/s, 10° | - | - |
| 1778006404 | 12.78° C | 84% | - | - | 8.94 m/s, 12° | - | - |
| 1778006103 | 12.78° C | 84% | - | - | 8.05 m/s, 7° | - | - |
| 1778005804 | 12.78° C | 83% | - | - | 8.94 m/s, 9° | - | - |
* Rain since midnight (hover to see other rain measurements)
** Current wind speed in m/s (hover to see current wind gust speed)